Regional Weather Roundup
Issued by NWS

Home | Current Version | Previous Version | Graphics & Text | Print | Product List | Glossary On
Versions: 1 2 3 4 5 6 7 8 9 10 11 12 13 14 15 16 17 18 19 20 21 22 23 24 25 26 27 28 29 30 31 32 33 34 35 36 37 38 39 40 41 42 43 44 45 46 47 48 49 50
000
ASUS43 KOAX 221802
RWRNE

WEATHER ROUNDUP FOR NEBRASKA
NATIONAL WEATHER SERVICE OMAHA NE
1200 PM CST WED NOV 22 2017

NOTES: SATELLITE DATA IS BEING USED TO AUGMENT CLOUD COVER ABOVE
       12000 FEET.
       "FAIR" INDICATES FEW OR NO CLOUDS BELOW 12,000 FEET WITH NO
       SIGNIFICANT WEATHER AND/OR OBSTRUCTIONS TO VISIBILITY.


NEZ001>004-019>022-054>056-221900-
NEBRASKA PANHANDLE

CITY           SKY/WX    TMP DP  RH WIND       PRES   REMARKS
SCOTTSBLUFF    SUNNY     64  39  39 NW17G23   30.15F
6HR MIN TEMP:  27; 6HR MAX TEMP:  64;

ALLIANCE       SUNNY     63  37  38 NW16      30.12F
6HR MIN TEMP:  28; 6HR MAX TEMP:  63;

CHADRON        SUNNY     61  38  42 NW9       30.11F
6HR MIN TEMP:  29; 6HR MAX TEMP:  61;

GORDON         FAIR      61  35  38 W16       30.08S
6HR MIN TEMP:  30; 6HR MAX TEMP:  61;

KIMBALL        CLOUDY    64  37  36 NW24G31   30.19F
SIDNEY         SUNNY     66  40  38 NW23G32   30.18S
6HR MIN TEMP:  34; 6HR MAX TEMP:  66;

$$

NEZ057>060-069>072-079>082-221900-
SOUTHWEST NEBRASKA

CITY           SKY/WX    TMP DP  RH WIND       PRES   REMARKS
NORTH PLATTE   SUNNY     53  33  46 SW7       30.14F
6HR MIN TEMP:  27; 6HR MAX TEMP:  53;

IMPERIAL       SUNNY     63  36  36 W9        30.16F
6HR MIN TEMP:  30; 6HR MAX TEMP:  63;

LEXINGTON      SUNNY     47  27  46 SW14      30.17F
MCCOOK         SUNNY     52  33  48 SW7       30.18F
6HR MIN TEMP:  29; 6HR MAX TEMP:  52;

OGALLALA       SUNNY     60  38  43 W10       30.14F
$$

NEZ005>010-023>029-035>040-094-221900-
NORTH CENTRAL NEBRASKA

CITY           SKY/WX    TMP DP  RH WIND       PRES   REMARKS
VALENTINE      SUNNY     61  34  36 SW18      30.04F
6HR MIN TEMP:  28; 6HR MAX TEMP:  61;

AINSWORTH      CLOUDY    53  32  44 SW9       30.06F
BROKEN BOW     CLOUDY    47  27  45 SW10      30.13F
6HR MIN TEMP:  27; 6HR MAX TEMP:  47;

O`NEILL        CLOUDY    40  23  50 S14       30.09F WCI  32
ORD            CLOUDY    41  21  44 S15       30.13F
6HR MIN TEMP:  18; 6HR MAX TEMP:  41;

THEDFORD       SUNNY     60  33  36 SW8       30.10F
$$

NEZ041-046>049-061>064-073>077-083>087-221900-
SOUTH CENTRAL NEBRASKA

CITY           SKY/WX    TMP DP  RH WIND       PRES   REMARKS
GRAND ISLAND   CLOUDY    37  16  42 S18       30.21F WCI  27
6HR MIN TEMP:  20; 6HR MAX TEMP:  37;

AURORA         CLOUDY    37  15  40 S13G21    30.21F WCI  29
HASTINGS       CLOUDY    39  14  36 S17G26    30.21F WCI  30
6HR MIN TEMP:  18; 6HR MAX TEMP:  39;

HEBRON         CLOUDY    36  15  42 SW13G22   30.29F WCI  28
HOLDREGE       CLOUDY    45  24  44 SW15G22   30.18F
KEARNEY        CLOUDY    44  21  40 SW17      30.18F
YORK           CLOUDY    36  16  44 S16       30.24F WCI  26
$$

NEZ011>018-030>034-042>045-221900-
NORTHEAST NEBRASKA

CITY           SKY/WX    TMP DP  RH WIND       PRES   REMARKS
NORFOLK        CLOUDY    34  17  50 S15       30.15F WCI  24
6HR MIN TEMP:  10; 6HR MAX TEMP:  34;

ALBION         CLOUDY    37  17  44 S16       30.18F WCI  27
BLAIR          SUNNY     33  14  45 S18       30.28F WCI  22
COLUMBUS       CLOUDY    34  17  50 S14       30.24F WCI  25
FREMONT        CLOUDY    32  14  47 S13       30.28F WCI  23
TEKAMAH        CLOUDY    33  13  43 S18       30.28F WCI  22
6HR MIN TEMP:   7; 6HR MAX TEMP:  34;

WAYNE          CLOUDY    33  13  43 S21       30.19F WCI  21
$$

NEZ050>053-065>068-078-088>093-221900-
SOUTHEAST NEBRASKA

CITY           SKY/WX    TMP DP  RH WIND       PRES   REMARKS
LINCOLN        CLOUDY    35  14  42 S15       30.30F WCI  25
6HR MIN TEMP:  14; 6HR MAX TEMP:  35;

OMAHA EPPLEY   MOSUNNY   33  14  45 S15       30.31F WCI  23
6HR MIN TEMP:  16; 6HR MAX TEMP:  33;

BEATRICE       CLOUDY    35  16  46 S15       30.30F WCI  25
FALLS CITY     SUNNY     35  13  40 S9G21     30.34F WCI  28
6HR MIN TEMP:  14; 6HR MAX TEMP:  35;

NEBRASKA CITY  SUNNY     34  16  47 SW14G20   30.31F WCI  25
PLATTSMOUTH    SUNNY     34  17  50 S13G18    30.32F WCI  25
$$

NEZ044-045-051>053-067-221900-
OMAHA AREA

CITY           SKY/WX    TMP DP  RH WIND       PRES   REMARKS
OMAHA EPPLEY   MOSUNNY   33  14  45 S15       30.31F WCI  23
6HR MIN TEMP:  16; 6HR MAX TEMP:  33;

BLAIR          SUNNY     33  14  45 S18       30.28F WCI  22
FREMONT        CLOUDY    32  14  47 S13       30.28F WCI  23
MILLARD        SUNNY     34  15  45 S12       30.31F WCI  25
OFFUTT AFB     SUNNY     34  12  40 S12       30.31F WCI  25
PLATTSMOUTH    SUNNY     34  17  50 S13G18    30.32F WCI  25
WAHOO          FAIR      33  14  45 S15       30.29F WCI  23
$$



USA.gov is the U.S. government's official web portal to all federal, state and local government web resources and services.